Weather History for Pineville, WV

Change the Weather History Date:

Friday, November 30, 2012

  Actual Average (KBKW) Record (KBKW)
Temperature  
Mean Temperature 44 °F 39 °F  
Max Temperature 61 °F 47 °F 72 °F (1934)
Min Temperature 27 °F 30 °F 3 °F (1958)
Degree Days  
Heating Degree Days 22 26  
Month to date heating degree days 633  
Since 1 July heating degree days 1140  
Cooling Degree Days 0 0  
Month to date cooling degree days 1  
Year to date cooling degree days 557  
Moisture  
Dew Point 32 °F    
Average Humidity 81    
Maximum Humidity 98    
Minimum Humidity 34    
Precipitation  
Precipitation 0.00 in 0.10 in 1.75 in (2010)
Month to date precipitation 2.95  
Year to date precipitation 38.19  
Snow  
Snow 0.00 in - - ()
Month to date snowfall  
Since 1 September snowfall  
Snow Depth -    
Sea Level Pressure  
Sea Level Pressure 30.34 in    
Wind  
Wind Speed - (North)    
Max Wind Speed -    
Max Gust Speed -    
Visibility 10 miles    
Events      
T = Trace of Precipitation, MM = Missing Value Source: NWS Daily Summary

Daily Weather History Graph

Daily Weather History Graph

Search for Another Location

Airport:

Trip Planner

Search our weather history database for the weather conditions in past years. The results will help you decide how hot, cold, wet, or windy it might be!

Date:

Astronomy

Nov. 30, 2012 Rise Set
Actual Time 7:21 AM EST 5:08 PM EST
Civil Twilight 6:53 AM EST 5:36 PM EST
Nautical Twilight 6:20 AM EST 6:09 PM EST
Astronomical Twilight 5:49 AM EST 6:40 PM EST
Moon 7:01 PM EST 8:53 AM EST
Length of Visible Light 10h 43m
Length of Day
9h 46m
Waning Gibbous, 96% of the Moon is Illuminated
Nov 30
Waning Gibbous
Dec 6
Last Quarter
Dec 13
New
Dec 20
First Quarter
Dec 28
Full

Hourly Weather History & Observations

Time (EST) Temp. Dew Point Humidity Pressure Visibility Wind Dir Wind Speed Gust Speed Precip Events Conditions
12:15 AM 29.5 °F 27.9 °F 94% 30.36 in 10.0 mi North - - N/A   Clear
12:35 AM 29.3 °F 28.0 °F 95% 30.37 in 10.0 mi North - - N/A   Clear
12:55 AM 29.3 °F 27.7 °F 94% 30.36 in 10.0 mi North - - N/A   Clear
1:15 AM 29.3 °F 27.7 °F 94% 30.36 in 10.0 mi North - - N/A   Clear
1:35 AM 29.1 °F 27.7 °F 94% 30.37 in 10.0 mi North - - N/A   Clear
1:55 AM 28.9 °F 27.3 °F 94% 30.37 in 10.0 mi North - - N/A   Clear
2:15 AM 28.9 °F 27.3 °F 94% 30.37 in 10.0 mi North - - N/A   Clear
2:35 AM 28.4 °F 27.5 °F 96% 30.38 in 10.0 mi North - - N/A   Clear
2:55 AM 28.4 °F 27.3 °F 96% 30.38 in 10.0 mi North - - N/A   Clear
3:15 AM 28.4 °F 27.5 °F 96% 30.38 in 10.0 mi North - - N/A   Clear
3:35 AM 28.4 °F 27.1 °F 95% 30.38 in 10.0 mi North - - N/A   Clear
3:55 AM 28.6 °F 27.3 °F 95% 30.38 in 10.0 mi North - - N/A   Clear
4:15 AM 28.8 °F 27.3 °F 94% 30.37 in 10.0 mi North - - N/A   Clear
4:35 AM 28.8 °F 27.5 °F 95% 30.36 in 10.0 mi North - - N/A   Clear
4:55 AM 28.4 °F 27.5 °F 96% 30.36 in 10.0 mi North - - N/A   Clear
5:15 AM 28.4 °F 27.1 °F 95% 30.36 in 10.0 mi North - - N/A   Clear
5:35 AM 28.4 °F 27.5 °F 96% 30.36 in 10.0 mi North - - N/A   Clear
5:55 AM 28.0 °F 27.0 °F 96% 30.37 in 10.0 mi North - - N/A   Clear
6:15 AM 27.9 °F 27.0 °F 96% 30.37 in 10.0 mi North - - N/A   Clear
6:35 AM 27.9 °F 27.1 °F 97% 30.38 in 10.0 mi North - - N/A   Clear
6:55 AM 27.5 °F 26.6 °F 96% 30.38 in 10.0 mi North - - N/A   Clear
7:15 AM 27.5 °F 27.0 °F 98% 30.39 in 10.0 mi North - - N/A   Clear
7:35 AM 27.5 °F 27.0 °F 98% 30.39 in 10.0 mi North - - N/A   Clear
7:55 AM 28.0 °F 27.1 °F 96% 30.39 in 10.0 mi North - - N/A   Clear
8:15 AM 29.8 °F 28.4 °F 94% 30.39 in 10.0 mi North - - N/A   Clear
8:35 AM 31.3 °F 29.7 °F 94% 30.40 in 10.0 mi North - - N/A   Clear
8:55 AM 32.5 °F 30.7 °F 93% 30.40 in 10.0 mi North - - N/A   Clear
9:15 AM 34.7 °F 31.5 °F 88% 30.40 in 10.0 mi North - - N/A   Clear
9:35 AM 37.0 °F 32.0 °F 82% 30.41 in 10.0 mi North - - N/A   Clear
9:55 AM 38.1 °F 32.0 °F 79% 30.40 in 10.0 mi North - - N/A   Clear
10:15 AM 39.7 °F 32.5 °F 75% 30.40 in 10.0 mi North - - N/A   Clear
10:35 AM 41.0 °F 33.3 °F 74% 30.40 in 10.0 mi North - - N/A   Clear
10:55 AM 43.0 °F 34.3 °F 72% 30.39 in 10.0 mi North - - N/A   Clear
11:15 AM 45.0 °F 35.2 °F 69% 30.38 in 10.0 mi North - - N/A   Clear
11:35 AM 46.4 °F 37.6 °F 71% 30.38 in 10.0 mi North - - N/A   Clear
11:55 AM 49.6 °F 37.2 °F 62% 30.37 in 10.0 mi North - - N/A   Clear
12:15 PM 54.7 °F 36.7 °F 51% 30.35 in 10.0 mi North - - N/A   Clear
12:35 PM 57.2 °F 34.0 °F 42% 30.34 in 10.0 mi North - - N/A   Clear
12:55 PM 58.6 °F 33.1 °F 38% 30.33 in 10.0 mi North - - N/A   Clear
1:15 PM 59.0 °F 32.0 °F 36% 30.32 in 10.0 mi North - - N/A   Clear
1:35 PM 59.2 °F 32.0 °F 36% 30.31 in 10.0 mi North - - N/A   Clear
1:55 PM 60.8 °F 32.4 °F 34% 30.30 in 10.0 mi North - - N/A   Clear
2:15 PM 59.0 °F 33.3 °F 38% 30.30 in 10.0 mi North - - N/A   Clear
2:35 PM 57.6 °F 35.2 °F 43% 30.29 in 10.0 mi North - - N/A   Clear
2:55 PM 55.0 °F 35.4 °F 48% 30.27 in 10.0 mi North - - N/A   Clear
3:15 PM 52.2 °F 36.9 °F 56% 30.26 in 10.0 mi North - - N/A   Clear
3:35 PM 50.2 °F 36.9 °F 60% 30.26 in 10.0 mi North - - N/A   Clear
3:55 PM 48.6 °F 37.2 °F 65% 30.26 in 10.0 mi North - - N/A   Clear
4:15 PM 47.3 °F 36.7 °F 67% 30.26 in 10.0 mi North - - N/A   Clear
4:35 PM 46.2 °F 36.9 °F 70% 30.26 in 10.0 mi North - - N/A   Clear
4:55 PM 45.5 °F 36.7 °F 71% 30.26 in 10.0 mi North - - N/A   Clear
5:15 PM 43.5 °F 36.5 °F 76% 30.26 in 10.0 mi North - - N/A   Clear
5:35 PM 41.7 °F 36.0 °F 80% 30.26 in 10.0 mi North - - N/A   Clear
5:55 PM 39.9 °F 35.4 °F 84% 30.27 in 10.0 mi North - - N/A   Clear
6:15 PM 38.5 °F 34.7 °F 86% 30.27 in 10.0 mi North - - N/A   Clear
6:35 PM 37.8 °F 34.3 °F 87% 30.29 in 10.0 mi North - - N/A   Clear
7:15 PM 36.3 °F 33.6 °F 90% 30.30 in 10.0 mi North - - N/A   Scattered Clouds
7:35 PM 36.7 °F 34.0 °F 90% 30.31 in 10.0 mi North - - N/A   Mostly Cloudy
7:55 PM 37.6 °F 34.7 °F 89% 30.32 in 10.0 mi North - - N/A   Overcast
8:15 PM 38.1 °F 34.9 °F 88% 30.32 in 10.0 mi North - - N/A   Mostly Cloudy
8:35 PM 39.4 °F 35.6 °F 86% 30.32 in 10.0 mi North - - N/A   Overcast
8:55 PM 39.4 °F 36.0 °F 88% 30.32 in 10.0 mi North - - N/A   Overcast
9:15 PM 39.7 °F 36.1 °F 87% 30.32 in 10.0 mi North - - N/A   Overcast
9:35 PM 37.9 °F 35.2 °F 90% 30.32 in 10.0 mi North - - N/A   Mostly Cloudy
9:55 PM 38.1 °F 35.8 °F 91% 30.32 in 10.0 mi North - - N/A   Mostly Cloudy
10:15 PM 37.4 °F 35.4 °F 93% 30.33 in 10.0 mi North - - N/A   Mostly Cloudy
10:35 PM 36.5 °F 34.9 °F 94% 30.32 in 10.0 mi North - - N/A   Scattered Clouds
11:15 PM 34.7 °F 33.8 °F 97% 30.33 in 10.0 mi North - - N/A   Clear
11:35 PM 34.2 °F 33.3 °F 97% 30.34 in 10.0 mi North - - N/A   Clear
11:55 PM 33.8 °F 33.1 °F 97% 30.34 in 10.0 mi North - - N/A   Clear